Date,Installs,Update checks
2020-03-09,4,0
2020-03-10,5,2
2020-03-11,2,3
2020-03-12,7,1
2020-03-13,2,6
2020-03-14,3,4
2020-03-15,6,5
2020-03-16,8,7
2020-03-17,4,6
2020-03-18,6,13
2020-03-19,4,13
2020-03-20,9,20
2020-03-21,5,24
2020-03-22,7,19
2020-03-23,3,20
2020-03-24,5,28
2020-03-25,3,28
2020-03-26,4,25
2020-03-27,2,25
2020-03-28,4,22
2020-03-29,6,28
2020-03-30,6,38
2020-03-31,13,35
2020-04-01,6,38
2020-04-02,5,44
2020-04-03,4,36
2020-04-04,4,33
2020-04-05,9,47
2020-04-06,4,50
2020-04-07,2,43
2020-04-08,3,45
2020-04-09,3,43
2020-04-10,1,44
2020-04-11,2,39
2020-04-12,1,34
2020-04-13,2,39
2020-04-14,1,51
2020-04-15,4,48
2020-04-16,7,43
2020-04-17,8,45
2020-04-18,7,47
2020-04-19,8,44
2020-04-20,4,52
2020-04-21,4,67
2020-04-22,7,59
2020-04-23,4,55
2020-04-24,5,52
2020-04-25,1,51
2020-04-26,6,46
2020-04-27,1,58
2020-04-28,1,52
2020-04-29,4,65
2020-04-30,6,54
2020-05-01,0,55
2020-05-02,3,53
2020-05-03,5,62
2020-05-04,6,62
2020-05-05,2,59
2020-05-06,2,59
2020-05-07,6,85
2020-05-08,2,59
2020-05-09,5,67
2020-05-10,8,66
2020-05-11,5,74
2020-05-12,5,76
2020-05-13,9,68
2020-05-14,8,75
2020-05-15,5,81
2020-05-16,8,81
2020-05-17,4,77
2020-05-18,3,81
2020-05-19,2,69
2020-05-20,6,89
2020-05-21,4,73
2020-05-22,0,89
2020-05-23,1,76
2020-05-24,2,75
2020-05-25,0,80
2020-05-26,0,84
2020-05-27,1,85
2020-05-28,4,90
2020-05-29,4,87
2020-05-30,0,77
2020-05-31,4,77
2020-06-01,4,84
2020-06-02,3,88
2020-06-03,2,86
2020-06-04,3,84
2020-06-05,1,92
2020-06-06,1,76
2020-06-07,3,82
2020-06-08,1,86
2020-06-09,2,89
2020-06-10,4,93
2020-06-11,1,84
2020-06-12,2,88
2020-06-13,4,73
2020-06-14,3,85
2020-06-15,4,79
2020-06-16,3,86
2020-06-17,2,90
2020-06-18,2,95
2020-06-19,3,82
2020-06-20,3,80
2020-06-21,4,89
2020-06-22,1,86
2020-06-23,0,97
2020-06-24,0,87
2020-06-25,3,79
2020-06-26,1,91
2020-06-27,3,75
2020-06-28,4,78
2020-06-29,4,86
2020-06-30,3,97
2020-07-01,2,99
2020-07-02,1,91
2020-07-03,5,89
2020-07-04,1,77
2020-07-05,3,92
2020-07-06,4,91
2020-07-07,4,89
2020-07-08,4,90
2020-07-09,1,78
2020-07-10,6,92
2020-07-11,2,73
2020-07-12,0,91
2020-07-13,0,107
2020-07-14,1,88
2020-07-15,0,86
2020-07-16,1,85
2020-07-17,0,98
2020-07-18,0,90
2020-07-19,0,76
2020-07-20,1,90
2020-07-21,1,83
2020-07-22,0,89
2020-07-23,1,84
2020-07-24,1,77
2020-07-25,0,91
2020-07-26,1,85
2020-07-27,4,87
2020-07-28,5,86
2020-07-29,5,105
2020-07-30,5,91
2020-07-31,1,87
2020-08-01,1,101
2020-08-02,2,93
2020-08-03,2,100
2020-08-04,2,93
2020-08-05,1,91
2020-08-06,1,93
2020-08-07,0,105
2020-08-08,2,84
2020-08-09,2,92
2020-08-10,4,105
2020-08-11,3,86
2020-08-12,5,109
2020-08-13,4,91
2020-08-14,1,90
2020-08-15,1,98
2020-08-16,3,89
2020-08-17,1,97
2020-08-18,0,99
2020-08-19,0,86
2020-08-20,1,95
2020-08-21,4,93
2020-08-22,0,95
2020-08-23,1,95
2020-08-24,2,112
2020-08-25,3,94
2020-08-26,2,111
2020-08-27,2,95
2020-08-28,1,99
2020-08-29,2,96
2020-08-30,0,98
2020-08-31,3,109
2020-09-01,0,109
2020-09-02,0,98
2020-09-03,1,98
2020-09-04,0,88
2020-09-05,0,104
2020-09-06,2,100
2020-09-07,1,108
2020-09-08,4,94
2020-09-09,3,117
2020-09-10,3,97
2020-09-11,2,107
2020-09-12,4,97
2020-09-13,0,103
2020-09-14,0,109
2020-09-15,1,108
2020-09-16,0,95
2020-09-17,1,107
2020-09-18,1,121
2020-09-19,0,85
2020-09-20,3,104
2020-09-21,2,91
2020-09-22,1,108
2020-09-23,0,104
2020-09-24,0,106
2020-09-25,3,103
2020-09-26,1,106
2020-09-27,0,103
2020-09-28,5,109
2020-09-29,3,104
2020-09-30,0,108
2020-10-01,0,99
2020-10-02,1,110
2020-10-03,1,99
2020-10-04,0,97
2020-10-05,0,117
2020-10-06,2,101
2020-10-07,0,116
2020-10-08,1,111
2020-10-09,2,104
2020-10-10,3,116
2020-10-11,6,112
2020-10-12,6,132
2020-10-13,6,122
2020-10-14,3,132
2020-10-15,7,120
2020-10-16,5,129
2020-10-17,5,114
2020-10-18,2,108
2020-10-19,0,129
2020-10-20,0,124
2020-10-21,1,126
2020-10-22,4,117
2020-10-23,0,124
2020-10-24,3,124
2020-10-25,3,113
2020-10-26,3,122
2020-10-27,1,132
2020-10-28,0,141
2020-10-29,3,122
2020-10-30,6,128
2020-10-31,8,118
2020-11-01,3,125
2020-11-02,3,144
2020-11-03,4,135
2020-11-04,5,125
2020-11-05,3,146
2020-11-06,2,131
2020-11-07,5,124
2020-11-08,3,120
2020-11-09,5,138
2020-11-10,2,145
2020-11-11,5,135
2020-11-12,3,136
2020-11-13,4,129
2020-11-14,3,128
2020-11-15,3,126
2020-11-16,0,152
2020-11-17,1,138
2020-11-18,3,143
2020-11-19,3,147
2020-11-20,3,135
2020-11-21,7,140
2020-11-22,4,134
2020-11-23,3,147
2020-11-24,2,150
2020-11-25,2,143
2020-11-26,0,141
2020-11-27,1,137
2020-11-28,6,153
2020-11-29,1,122
2020-11-30,4,166
2020-12-01,2,154
2020-12-02,2,155
2020-12-03,2,149
2020-12-04,4,151
2020-12-05,1,151
2020-12-06,2,156
2020-12-07,2,157
2020-12-08,1,153
2020-12-09,1,163
2020-12-10,4,150
2020-12-11,1,148
2020-12-12,3,130
2020-12-13,4,135
2020-12-14,0,170
2020-12-15,2,144
2020-12-16,0,153
2020-12-17,4,131
2020-12-18,1,156
2020-12-19,1,135
2020-12-20,1,147
2020-12-21,2,163
2020-12-22,2,150
2020-12-23,2,146
2020-12-24,1,135
2020-12-25,0,143
2020-12-26,2,144
2020-12-27,0,129
2020-12-28,1,153
2020-12-29,1,148
2020-12-30,2,149
2020-12-31,1,126
2021-01-01,1,139
2021-01-02,3,146
2021-01-03,2,151
2021-01-04,2,145
2021-01-05,2,145
2021-01-06,1,134
2021-01-07,1,160
2021-01-08,0,135
2021-01-09,6,157
2021-01-10,1,138
2021-01-11,2,162
2021-01-12,1,154
2021-01-13,4,153
2021-01-14,2,171
2021-01-15,0,159
2021-01-16,1,148
2021-01-17,0,143
2021-01-18,1,169
2021-01-19,0,171
2021-01-20,3,189
2021-01-21,4,168
2021-01-22,3,164
2021-01-23,1,155
2021-01-24,4,157
2021-01-25,2,184
2021-01-26,1,167
2021-01-27,0,159
2021-01-28,0,175
2021-01-29,3,173
2021-01-30,6,146
2021-01-31,1,176
2021-02-01,2,177
2021-02-02,1,177
2021-02-03,2,186
2021-02-04,2,176
2021-02-05,1,188
2021-02-06,3,170
2021-02-07,1,164
2021-02-08,0,183
2021-02-09,0,119
2021-02-10,3,134
2021-02-11,1,151
2021-02-12,1,133
2021-02-13,1,112
2021-02-14,2,109
2021-02-15,0,191
2021-02-16,2,174
2021-02-17,1,171
2021-02-18,2,167
2021-02-19,2,190
2021-02-20,1,184
2021-02-21,2,163
2021-02-22,2,171
2021-02-23,2,191
2021-02-24,1,165
2021-02-25,0,182
2021-02-26,1,172
2021-02-27,2,181
2021-02-28,2,181
2021-03-01,2,198
2021-03-02,2,209
2021-03-03,1,188
2021-03-04,0,199
2021-03-05,3,196
2021-03-06,3,186
2021-03-07,1,161
2021-03-08,0,139
2021-03-09,0,154
2021-03-10,2,178
2021-03-11,1,128
2021-03-12,4,147
2021-03-13,2,149
2021-03-14,1,122
2021-03-15,2,145
2021-03-16,1,164
2021-03-17,0,160
2021-03-18,2,151
2021-03-19,2,161
2021-03-20,3,137
2021-03-21,4,108
2021-03-22,1,144
2021-03-23,2,108
2021-03-24,3,131
2021-03-25,1,161
2021-03-26,0,148
2021-03-27,4,129
2021-03-28,1,123
2021-03-29,0,160
2021-03-30,0,156
2021-03-31,0,147
2021-04-01,1,147
2021-04-02,1,143
2021-04-03,1,108
2021-04-04,3,121
2021-04-05,0,137
2021-04-06,4,155
2021-04-07,4,140
2021-04-08,3,169
2021-04-09,0,145
2021-04-10,5,111
2021-04-11,2,155
2021-04-12,3,123
2021-04-13,0,144
2021-04-14,4,142
2021-04-15,0,133
2021-04-16,1,213
2021-04-17,0,186
2021-04-18,1,197
2021-04-19,0,204
2021-04-20,0,206
2021-04-21,6,210
2021-04-22,2,192
2021-04-23,5,206
2021-04-24,2,180
2021-04-25,1,173
2021-04-26,0,203
2021-04-27,0,197
2021-04-28,1,193
2021-04-29,1,189
2021-04-30,1,205
2021-05-01,0,176
2021-05-02,2,199
2021-05-03,4,209
2021-05-04,1,201
2021-05-05,1,210
2021-05-06,3,197
2021-05-07,3,197
2021-05-08,5,188
2021-05-09,2,182
2021-05-10,2,188
2021-05-11,4,213
2021-05-12,0,195
2021-05-13,1,192
2021-05-14,1,177
2021-05-15,1,158
2021-05-16,4,183
2021-05-17,2,198
2021-05-18,1,202
2021-05-19,1,188
2021-05-20,1,208
2021-05-21,5,206
2021-05-22,2,198
2021-05-23,5,185
2021-05-24,4,214
2021-05-25,0,233
2021-05-26,1,200
2021-05-27,2,225
2021-05-28,1,204
2021-05-29,2,191
2021-05-30,2,189
2021-05-31,0,214
2021-06-01,2,204
2021-06-02,1,203
2021-06-03,0,188
2021-06-04,0,188
2021-06-05,2,131
2021-06-06,3,187
2021-06-07,1,176
2021-06-08,3,203
2021-06-09,2,210
2021-06-10,0,199
2021-06-11,3,198
2021-06-12,0,169
2021-06-13,4,176
2021-06-14,1,194
2021-06-15,5,210
2021-06-16,2,210
2021-06-17,0,211
2021-06-18,0,186
2021-06-19,0,179
2021-06-20,2,168
2021-06-21,3,210
2021-06-22,3,209
2021-06-23,1,196
2021-06-24,4,215
2021-06-25,3,188
2021-06-26,2,176
2021-06-27,2,185
2021-06-28,1,224
2021-06-29,2,222
2021-06-30,0,210
2021-07-01,1,205
2021-07-02,0,193
2021-07-03,1,183
2021-07-04,4,189
2021-07-05,2,219
2021-07-06,1,204
2021-07-07,0,181
2021-07-08,5,191
2021-07-09,3,196
2021-07-10,4,177
2021-07-11,1,179
2021-07-12,4,210
2021-07-13,2,194
2021-07-14,3,193
2021-07-15,1,200
2021-07-16,4,210
2021-07-17,2,177
2021-07-18,0,7
2021-07-19,1,85
2021-07-20,1,205
2021-07-21,1,183
2021-07-22,3,204
2021-07-23,0,202
2021-07-24,0,175
2021-07-25,1,182
2021-07-26,3,209
2021-07-27,1,201
2021-07-28,1,202
2021-07-29,4,210
2021-07-30,2,189
2021-07-31,1,178
2021-08-01,6,184
2021-08-02,1,198
2021-08-03,1,209
2021-08-04,6,188
2021-08-05,2,191
2021-08-06,0,196
2021-08-07,2,182
2021-08-08,1,188
2021-08-09,5,194
2021-08-10,0,192
2021-08-11,0,191
2021-08-12,1,169
2021-08-13,1,192
2021-08-14,0,182
2021-08-15,0,166
2021-08-16,4,193
2021-08-17,4,180
2021-08-18,3,188
2021-08-19,5,191
2021-08-20,3,185
2021-08-21,0,184
2021-08-22,0,192
2021-08-23,1,215
2021-08-24,2,186
2021-08-25,5,219
2021-08-26,5,217
2021-08-27,3,221
2021-08-28,2,199
2021-08-29,1,188
2021-08-30,3,221
2021-08-31,4,223
2021-09-01,0,201
2021-09-02,0,209
2021-09-03,0,202
2021-09-04,0,181
2021-09-05,2,182
2021-09-06,1,211
2021-09-07,3,208
2021-09-08,2,217
2021-09-09,1,215
2021-09-10,1,205
2021-09-11,1,180
2021-09-12,1,186
2021-09-13,2,199
2021-09-14,0,212
2021-09-15,0,205
2021-09-16,1,207
2021-09-17,2,203
2021-09-18,4,191
2021-09-19,3,184
2021-09-20,2,209
2021-09-21,2,209
2021-09-22,0,196
2021-09-23,0,204
2021-09-24,3,216
2021-09-25,2,186
2021-09-26,3,202
2021-09-27,3,218
2021-09-28,1,221
2021-09-29,0,212
2021-09-30,1,207
2021-10-01,2,204
2021-10-02,3,193
2021-10-03,3,186
2021-10-04,1,204
2021-10-05,0,205
2021-10-06,0,215
2021-10-07,2,200
2021-10-08,1,213
2021-10-09,3,200
2021-10-10,3,180
2021-10-11,1,223
2021-10-12,5,211
2021-10-13,1,206
2021-10-14,1,210
2021-10-15,2,226
2021-10-16,6,200
2021-10-17,2,208
2021-10-18,3,231
2021-10-19,1,226
2021-10-20,0,225
2021-10-21,0,220
2021-10-22,2,202
2021-10-23,4,211
2021-10-24,1,209
2021-10-25,1,246
2021-10-26,4,234
2021-10-27,2,231
2021-10-28,4,240
2021-10-29,0,238
2021-10-30,1,211
2021-10-31,2,201
2021-11-01,0,225
2021-11-02,1,226
2021-11-03,2,226
2021-11-04,2,204
2021-11-05,2,239
2021-11-06,4,212
2021-11-07,7,210
2021-11-08,5,236
2021-11-09,6,212
2021-11-10,2,232
2021-11-11,5,242
2021-11-12,2,229
2021-11-13,5,209
2021-11-14,11,196
2021-11-15,6,233
2021-11-16,4,239
2021-11-17,2,258
2021-11-18,6,227
2021-11-19,5,224
2021-11-20,3,214
2021-11-21,9,215
2021-11-22,7,228
2021-11-23,7,236
2021-11-24,7,223
2021-11-25,3,230
2021-11-26,10,243
2021-11-27,4,207
2021-11-28,6,218
2021-11-29,8,254
2021-11-30,8,243
2021-12-01,6,246
2021-12-02,6,239
2021-12-03,5,236
2021-12-04,8,208
2021-12-05,6,221
2021-12-06,5,255
2021-12-07,2,239
2021-12-08,3,232
2021-12-09,4,250
2021-12-10,5,230
2021-12-11,4,209
2021-12-12,7,203
2021-12-13,8,235
2021-12-14,8,240
2021-12-15,7,230
2021-12-16,4,234
2021-12-17,5,235
2021-12-18,7,232
2021-12-19,7,219
2021-12-20,4,240
2021-12-21,5,258
2021-12-22,2,244
2021-12-23,0,225
2021-12-24,7,220
2021-12-25,9,211
2021-12-26,5,210
2021-12-27,8,236
2021-12-28,5,241
2021-12-29,3,208
2021-12-30,3,238
2021-12-31,5,198
2022-01-01,0,205
2022-01-02,4,232
2022-01-03,5,238
2022-01-04,5,248
2022-01-05,5,234
2022-01-06,10,230
2022-01-07,4,238
2022-01-08,6,224
2022-01-09,6,10
2022-01-10,5,0
2022-01-11,7,270
2022-01-12,6,251
2022-01-13,10,251
2022-01-14,11,259
2022-01-15,8,224
2022-01-16,5,230
2022-01-17,7,263
2022-01-18,10,265
2022-01-19,7,244
2022-01-20,8,274
2022-01-21,13,251
2022-01-22,4,233
2022-01-23,4,227
2022-01-24,3,259
2022-01-25,9,241
2022-01-26,11,240
2022-01-27,6,259
2022-01-28,4,259
2022-01-29,4,222
2022-01-30,3,232
2022-01-31,7,246
2022-02-01,6,254
2022-02-02,7,254
2022-02-03,11,263
2022-02-04,5,264
2022-02-05,7,228
2022-02-06,3,226
2022-02-07,3,269
2022-02-08,8,269
2022-02-09,5,253
2022-02-10,4,263
2022-02-11,10,253
2022-02-12,5,246
2022-02-13,6,234
2022-02-14,4,261
2022-02-15,6,258
2022-02-16,5,264
2022-02-17,6,248
2022-02-18,6,266
2022-02-19,6,212
2022-02-20,5,244
2022-02-21,6,268
2022-02-22,9,267
2022-02-23,8,242
2022-02-24,3,269
2022-02-25,4,254
2022-02-26,7,233
2022-02-27,9,216
2022-02-28,3,263
2022-03-01,2,253
2022-03-02,4,252
2022-03-03,8,259
2022-03-04,5,258
2022-03-05,3,229
2022-03-06,3,243
2022-03-07,4,254
2022-03-08,9,252
2022-03-09,4,270
2022-03-10,4,254
2022-03-11,8,265
2022-03-12,5,225
2022-03-13,9,225
2022-03-14,5,275
2022-03-15,10,258
2022-03-16,6,265
2022-03-17,5,247
2022-03-18,3,272
2022-03-19,8,218
2022-03-20,3,233
2022-03-21,6,269
2022-03-22,4,275
2022-03-23,4,240
2022-03-24,7,279
2022-03-25,6,282
2022-03-26,6,220
2022-03-27,2,234
2022-03-28,4,266
2022-03-29,6,276
2022-03-30,5,257
2022-03-31,4,271
2022-04-01,6,272
2022-04-02,6,238
2022-04-03,11,239
2022-04-04,9,271
2022-04-05,10,238
2022-04-06,6,263
2022-04-07,10,282
2022-04-08,5,262
2022-04-09,1,225
2022-04-10,5,228
2022-04-11,6,251
2022-04-12,10,261
2022-04-13,10,271
2022-04-14,12,241
2022-04-15,9,253
2022-04-16,5,208
2022-04-17,9,227
2022-04-18,4,247
2022-04-19,0,270
2022-04-20,8,255
2022-04-21,7,269
2022-04-22,12,267
2022-04-23,6,219
2022-04-24,4,243
2022-04-25,1,262
2022-04-26,5,260
2022-04-27,4,250
2022-04-28,6,279
2022-04-29,2,261
2022-04-30,3,234
2022-05-01,0,224
2022-05-02,5,245
2022-05-03,6,262
2022-05-04,8,258
2022-05-05,2,265
2022-05-06,2,262
2022-05-07,5,205
2022-05-08,11,233
2022-05-09,5,245
2022-05-10,4,252
2022-05-11,7,273
2022-05-12,5,259
2022-05-13,9,271
2022-05-14,7,220
2022-05-15,5,241
2022-05-16,8,256
2022-05-17,5,273
2022-05-18,2,284
2022-05-19,0,276
2022-05-20,2,245
2022-05-21,5,213
2022-05-22,4,222
2022-05-23,3,275
2022-05-24,3,251
2022-05-25,7,274
2022-05-26,7,244
2022-05-27,3,255
2022-05-28,8,210
2022-05-29,1,233
2022-05-30,8,262
2022-05-31,2,274
2022-06-01,5,260
2022-06-02,1,249
2022-06-03,6,239
2022-06-04,7,211
2022-06-05,5,217
2022-06-06,7,249
2022-06-07,1,251
2022-06-08,8,261
2022-06-09,4,260
2022-06-10,5,263
2022-06-11,5,211
2022-06-12,4,231
2022-06-13,1,258
2022-06-14,1,243
2022-06-15,1,248
2022-06-16,3,260
2022-06-17,0,249
2022-06-18,4,217
2022-06-19,2,232
2022-06-20,5,260
2022-06-21,3,263
2022-06-22,1,261
2022-06-23,1,249
2022-06-24,1,233
2022-06-25,7,218
2022-06-26,5,227
2022-06-27,0,265
2022-06-28,0,263
2022-06-29,0,259
2022-06-30,0,251
2022-07-01,2,265
2022-07-02,3,204
2022-07-03,0,221
2022-07-04,0,249
2022-07-05,1,243
2022-07-06,5,248
2022-07-07,5,245
2022-07-08,1,240
2022-07-09,3,199
2022-07-10,0,210
2022-07-11,1,257
2022-07-12,2,253
2022-07-13,1,256
2022-07-14,5,242
2022-07-15,1,243
2022-07-16,1,213
2022-07-17,5,201
2022-07-18,2,241
2022-07-19,2,246
2022-07-20,10,213
2022-07-21,2,237
2022-07-22,2,225
2022-07-23,3,217
2022-07-24,2,145
2022-07-25,8,252
2022-07-26,6,244
2022-07-27,4,225
2022-07-28,4,246
2022-07-29,5,234
2022-07-30,0,188
2022-07-31,0,221
2022-08-01,1,240
2022-08-02,1,244
2022-08-03,3,229
2022-08-04,4,245
2022-08-05,1,244
2022-08-06,1,190
2022-08-07,1,215
2022-08-08,1,254
2022-08-09,4,220
2022-08-10,1,239
2022-08-11,2,227
2022-08-12,0,220
2022-08-13,1,193
2022-08-14,3,196
2022-08-15,6,226
2022-08-16,2,234
2022-08-17,1,224
2022-08-18,6,223
2022-08-19,6,224
2022-08-20,1,189
2022-08-21,4,206
2022-08-22,3,254
2022-08-23,0,242
2022-08-24,2,244
2022-08-25,8,234
2022-08-26,5,227
2022-08-27,4,191
2022-08-28,5,215
2022-08-29,2,238
2022-08-30,0,248
2022-08-31,1,235
2022-09-01,4,249
2022-09-02,4,224
2022-09-03,6,218
2022-09-04,7,223
2022-09-05,3,243
2022-09-06,3,257
2022-09-07,4,239
2022-09-08,6,241
2022-09-09,4,248
2022-09-10,3,207
2022-09-11,5,230
2022-09-12,4,241
2022-09-13,6,242
2022-09-14,5,248
2022-09-15,6,247
2022-09-16,5,238
2022-09-17,8,229
2022-09-18,11,216
2022-09-19,9,256
2022-09-20,1,241
2022-09-21,2,250
2022-09-22,1,245
2022-09-23,3,235
2022-09-24,10,213
2022-09-25,6,224
2022-09-26,8,239
2022-09-27,2,246
2022-09-28,2,251
2022-09-29,3,245
2022-09-30,5,235
2022-10-01,2,209
2022-10-02,5,209
2022-10-03,8,258
2022-10-04,2,241
2022-10-05,2,237
2022-10-06,3,259
2022-10-07,5,262
2022-10-08,5,208
2022-10-09,0,228
2022-10-10,6,242
2022-10-11,6,256
2022-10-12,2,264
2022-10-13,1,251
2022-10-14,0,251
2022-10-15,1,227
2022-10-16,1,223
2022-10-17,0,261
2022-10-18,1,260
2022-10-19,2,259
2022-10-20,5,246
2022-10-21,2,240
2022-10-22,1,208
2022-10-23,7,214
2022-10-24,8,271
2022-10-25,5,245
2022-10-26,1,252
2022-10-27,0,249
2022-10-28,1,233
2022-10-29,0,204
2022-10-30,3,225
2022-10-31,1,239
2022-11-01,2,237
2022-11-02,0,241
2022-11-03,1,245
2022-11-04,0,239
2022-11-05,1,216
2022-11-06,0,229
2022-11-07,4,255
2022-11-08,5,238
2022-11-09,4,254
2022-11-10,4,260
2022-11-11,5,224
2022-11-12,2,206
2022-11-13,0,234
2022-11-14,3,257
2022-11-15,6,250
2022-11-16,0,249
2022-11-17,3,221
2022-11-18,3,221
2022-11-19,1,193
2022-11-20,3,183
2022-11-21,1,244
2022-11-22,4,226
2022-11-23,5,237
2022-11-24,7,246
2022-11-25,6,225
2022-11-26,3,194
2022-11-27,7,196
2022-11-28,4,253
2022-11-29,1,238
2022-11-30,2,229
2022-12-01,2,230
2022-12-02,3,202
2022-12-03,2,182
2022-12-04,3,194
2022-12-05,5,216
2022-12-06,6,222
2022-12-07,2,225
2022-12-08,4,221
2022-12-09,5,210
2022-12-10,4,200
2022-12-11,5,182
2022-12-12,2,218
2022-12-13,3,213
2022-12-14,6,206
2022-12-15,5,228
2022-12-16,0,202
2022-12-17,1,177
2022-12-18,6,168
2022-12-19,1,212
2022-12-20,2,216
2022-12-21,7,202
2022-12-22,3,199
2022-12-23,4,205
2022-12-24,4,155
2022-12-25,4,183
2022-12-26,8,189
2022-12-27,2,207
2022-12-28,6,206
2022-12-29,4,195
2022-12-30,3,189
2022-12-31,3,173
2023-01-01,3,164
2023-01-02,3,201
2023-01-03,0,220
2023-01-04,2,231
2023-01-05,0,215
2023-01-06,1,228
2023-01-07,1,204
2023-01-08,0,212
2023-01-09,2,241
2023-01-10,2,248
2023-01-11,6,229
2023-01-12,3,234
2023-01-13,4,220
2023-01-14,3,201
2023-01-15,4,214
2023-01-16,0,259
2023-01-17,1,238
2023-01-18,5,229
2023-01-19,8,218
2023-01-20,4,245
2023-01-21,1,216
2023-01-22,2,213
2023-01-23,0,246
2023-01-24,0,254
2023-01-25,3,231
2023-01-26,4,233
2023-01-27,1,249
2023-01-28,1,210
2023-01-29,0,212
2023-01-30,0,239
2023-01-31,9,248
2023-02-01,1,238
2023-02-02,12,252
2023-02-03,1,247
2023-02-04,1,212
2023-02-05,6,206
2023-02-06,1,249
2023-02-07,1,254
2023-02-08,1,232
2023-02-09,3,225
2023-02-10,4,244
2023-02-11,3,206
2023-02-12,5,195
2023-02-13,2,248
2023-02-14,3,243
2023-02-15,1,239
2023-02-16,7,239
2023-02-17,0,228
2023-02-18,1,222
2023-02-19,3,207
2023-02-20,2,254
2023-02-21,4,256
2023-02-22,2,227
2023-02-23,5,236
2023-02-24,3,229
2023-02-25,2,236
2023-02-26,1,221
2023-02-27,4,267
2023-02-28,2,253
2023-03-01,4,265
2023-03-02,0,229
2023-03-03,3,240
2023-03-04,1,227
2023-03-05,1,221
2023-03-06,0,239
2023-03-07,6,243
2023-03-08,1,227
2023-03-09,3,235
2023-03-10,3,248
2023-03-11,1,209
2023-03-12,1,197
2023-03-13,6,254
2023-03-14,6,229
2023-03-15,5,232
2023-03-16,4,236
2023-03-17,3,235
2023-03-18,4,189
2023-03-19,3,205
2023-03-20,5,228
2023-03-21,3,242
2023-03-22,1,248
2023-03-23,0,237
2023-03-24,3,235
2023-03-25,2,215
2023-03-26,6,218
2023-03-27,3,236
2023-03-28,2,238
2023-03-29,2,216
2023-03-30,2,234
2023-03-31,3,237
2023-04-01,1,211
2023-04-02,5,198
2023-04-03,6,244
2023-04-04,6,240
2023-04-05,5,239
2023-04-06,3,221
2023-04-07,0,245
2023-04-08,0,204
2023-04-09,3,205
2023-04-10,2,239
2023-04-11,7,261
2023-04-12,4,241
2023-04-13,3,254
2023-04-14,1,248
2023-04-15,5,208
2023-04-16,11,208
2023-04-17,3,238
2023-04-18,2,249
2023-04-19,4,227
2023-04-20,5,242
2023-04-21,2,225
2023-04-22,7,225
2023-04-23,2,214
2023-04-24,2,248
2023-04-25,4,248
2023-04-26,4,245
2023-04-27,1,233
2023-04-28,1,250
2023-04-29,3,174
2023-04-30,2,220
2023-05-01,3,214
2023-05-02,7,261
2023-05-03,2,245
2023-05-04,2,244
2023-05-05,3,250
2023-05-06,2,208
2023-05-07,2,205
2023-05-08,7,237
2023-05-09,7,258
2023-05-10,3,253
2023-05-11,3,237
2023-05-12,2,233
2023-05-13,2,212
2023-05-14,1,214
2023-05-15,2,260
2023-05-16,0,248
2023-05-17,1,239
2023-05-18,4,223
2023-05-19,3,220
2023-05-20,5,194
2023-05-21,5,228
2023-05-22,7,247
2023-05-23,1,245
2023-05-24,2,234
2023-05-25,1,228
2023-05-26,0,234
2023-05-27,1,217
2023-05-28,1,192
2023-05-29,4,235
2023-05-30,3,234
2023-05-31,5,244
2023-06-01,2,225
2023-06-02,5,232
2023-06-03,6,191
2023-06-04,4,203
2023-06-05,0,262
2023-06-06,0,259
2023-06-07,0,256
2023-06-08,3,237
2023-06-09,4,233
2023-06-10,5,207
2023-06-11,2,205
2023-06-12,3,243
2023-06-13,3,235
2023-06-14,4,256
2023-06-15,1,218
2023-06-16,2,229
2023-06-17,3,201
2023-06-18,2,213
2023-06-19,6,231
2023-06-20,5,254
2023-06-21,4,237
2023-06-22,3,240
2023-06-23,2,221
2023-06-24,3,201
2023-06-25,0,208
2023-06-26,2,254
2023-06-27,1,240
2023-06-28,1,226
2023-06-29,9,238
2023-06-30,2,225
2023-07-01,2,199
2023-07-02,3,212
2023-07-03,2,245
2023-07-04,7,229
2023-07-05,1,213
2023-07-06,1,221
2023-07-07,3,228
2023-07-08,1,207
2023-07-09,1,183
2023-07-10,0,216
2023-07-11,1,220
2023-07-12,1,237
2023-07-13,1,210
2023-07-14,5,223
2023-07-15,2,183
2023-07-16,3,210
2023-07-17,3,228
2023-07-18,4,227
2023-07-19,2,224
2023-07-20,1,236
2023-07-21,3,228
2023-07-22,4,201
2023-07-23,3,207
2023-07-24,6,240
2023-07-25,5,216
2023-07-26,2,217
2023-07-27,7,223
2023-07-28,2,215
2023-07-29,4,196
2023-07-30,4,205
2023-07-31,1,238
2023-08-01,4,218
2023-08-02,0,217
2023-08-03,0,215
2023-08-04,3,207
2023-08-05,5,195
2023-08-06,7,203
2023-08-07,2,209
2023-08-08,2,216
2023-08-09,7,218
2023-08-10,4,216
2023-08-11,1,220
2023-08-12,2,186
2023-08-13,5,212
2023-08-14,1,225
2023-08-15,0,203
2023-08-16,1,210
2023-08-17,2,204
2023-08-18,2,216
2023-08-19,4,185
2023-08-20,1,189
2023-08-21,0,232
2023-08-22,1,226
2023-08-23,2,225
2023-08-24,4,210
2023-08-25,4,204
2023-08-26,4,169
2023-08-27,2,210
2023-08-28,1,210
2023-08-29,0,234
2023-08-30,2,221
2023-08-31,1,220
2023-09-01,1,231
2023-09-02,2,188
2023-09-03,0,195
2023-09-04,1,223
2023-09-05,0,229
2023-09-06,0,229
2023-09-07,4,224
2023-09-08,3,211
2023-09-09,3,193
2023-09-10,10,199
2023-09-11,3,214
2023-09-12,1,215
2023-09-13,5,230
2023-09-14,2,224
2023-09-15,3,225
2023-09-16,10,182
2023-09-17,5,194
2023-09-18,4,239
2023-09-19,5,198
2023-09-20,3,211
2023-09-21,3,213
2023-09-22,2,199
2023-09-23,3,186
2023-09-24,6,189
2023-09-25,1,237
2023-09-26,3,213
2023-09-27,1,226
2023-09-28,1,203
2023-09-29,4,205
2023-09-30,2,181
2023-10-01,1,196
2023-10-02,0,224
2023-10-03,0,219
2023-10-04,2,235
2023-10-05,1,209
2023-10-06,6,212
2023-10-07,1,204
2023-10-08,1,208
2023-10-09,2,234
2023-10-10,6,236
2023-10-11,0,217
2023-10-12,0,208
2023-10-13,3,207
2023-10-14,3,166
2023-10-15,1,197
2023-10-16,6,230
2023-10-17,0,217
2023-10-18,4,225
2023-10-19,4,210
2023-10-20,5,201
2023-10-21,6,176
2023-10-22,2,180
2023-10-23,5,219
2023-10-24,3,219
2023-10-25,1,195
2023-10-26,2,211
2023-10-27,3,210
2023-10-28,2,182
2023-10-29,5,175
2023-10-30,0,206
2023-10-31,0,209
2023-11-01,0,205
2023-11-02,2,211
2023-11-03,1,212
2023-11-04,0,177
2023-11-05,0,180
2023-11-06,1,205
2023-11-07,3,224
2023-11-08,1,217
2023-11-09,0,209
2023-11-10,2,193
2023-11-11,2,196
2023-11-12,7,192
2023-11-13,2,218
2023-11-14,1,229
2023-11-15,0,206
2023-11-16,3,197
2023-11-17,4,183
2023-11-18,2,183
2023-11-19,6,190
2023-11-20,3,205
2023-11-21,0,214
2023-11-22,9,208
2023-11-23,3,200
2023-11-24,3,188
2023-11-25,6,189
2023-11-26,4,183
2023-11-27,3,214
2023-11-28,4,211
2023-11-29,6,219
2023-11-30,2,215
2023-12-01,0,193
2023-12-02,0,178
2023-12-03,3,188
2023-12-04,3,200
2023-12-05,3,98
2023-12-06,4,97
2023-12-07,2,104
2023-12-08,4,131
2023-12-09,6,122
2023-12-10,3,81
2023-12-11,0,118
2023-12-12,6,121
2023-12-13,0,91
2023-12-14,0,103
2023-12-15,2,98
2023-12-16,4,94
2023-12-17,5,94
2023-12-18,4,103
2023-12-19,0,107
2023-12-20,4,94
2023-12-21,1,101
2023-12-22,2,112
2023-12-23,3,85
2023-12-24,0,93
2023-12-25,2,101
2023-12-26,6,95
2023-12-27,4,101
2023-12-28,2,95
2023-12-29,1,102
2023-12-30,0,90
2023-12-31,0,89
2024-01-01,0,97
2024-01-02,1,99
2024-01-03,2,86
2024-01-04,3,109
2024-01-05,2,93
2024-01-06,2,99
2024-01-07,3,95
2024-01-08,1,102
2024-01-09,2,108
2024-01-10,5,97
2024-01-11,5,113
2024-01-12,3,109
2024-01-13,1,100
2024-01-14,4,94
2024-01-15,7,105
2024-01-16,2,111
2024-01-17,3,113
2024-01-18,5,105
2024-01-19,2,119
2024-01-20,0,101
2024-01-21,1,105
2024-01-22,2,111
2024-01-23,6,162
2024-01-24,3,169
2024-01-25,3,166
2024-01-26,2,164
2024-01-27,1,168
2024-01-28,1,153